Regional Weather Roundup
Issued by NWS

Home | Current Version | Previous Version | Graphics & Text | Print | Product List | Glossary On
Versions: 1 2 3 4 5 6 7 8 9 10 11 12 13 14 15 16 17 18 19 20 21 22 23 24 25 26 27 28 29 30 31 32 33 34 35 36 37 38 39 40 41 42 43 44 45 46 47 48 49 50
765
ASUS43 KMKX 120320
RWRWI

WISCONSIN REGIONAL WEATHER ROUNDUP
NATIONAL WEATHER SERVICE MILWAUKEE/SULLIVAN WI
900 PM CST THU FEB 11 2016

NOTE: "FAIR" INDICATES FEW OR NO CLOUDS BELOW 12,000 FEET WITH NO
SIGNIFICANT WEATHER AND/OR OBSTRUCTIONS TO VISIBILITY.

WIZ001-002-006>008-014>016-023>028-120400-
NORTHWEST WISCONSIN

CITY           SKY/WX    TMP DP  RH WIND       PRES   REMARKS
SUPERIOR ARPT  CLOUDY    14   1  55 W9        30.19S WCI   2
ASHLAND        CLOUDY    13  -1  54 SW9       30.16S WCI   1
HAYWARD        CLOUDY    12  -2  53 W7        30.15F WCI   1
SIREN          CLOUDY    13   4  64 W6        30.20S WCI   4
CUMBERLAND     CLOUDY    12   1  62 W9        30.17S WCI   0
RICE LAKE      CLOUDY    13   3  64 W3        30.20S
CHETEK         CLOUDY    13   1  57 W3        30.19S
LADYSMITH      CLOUDY    13   1  57 W7        30.17S WCI   3
EAU CLAIRE     CLOUDY    14   1  56 W8        30.21F WCI   3
MENOMONIE      CLOUDY    16   3  57 SW8       30.21F WCI   5
NEW RICHMOND   CLOUDY    14   4  64 W8        30.21F WCI   3
OSCEOLA        FLURRIES  15   8  72 W6        30.25S WCI   6
$$

WIZ003>005-009-010-017-018-120400-
NORTH CENTRAL WISCONSIN

CITY           SKY/WX    TMP DP  RH WIND       PRES   REMARKS
MANITOWISH WTR CLOUDY    10  -5  51 W10       30.06F WCI  -4
ARBOR VITAE    CLOUDY    13  -4  47 W9G16     30.07F WCI   1
WOODRUFF       CLOUDY    13  -4  47 W9G16     30.07F WCI   1
RHINELANDER    CLOUDY    10  -4  53 W15       30.07F WCI  -7
EAGLE RIVER    CLOUDY    11  -6  45 W8        30.05F WCI   0
LAND O LAKES   CLOUDY    11  -5  47 W5        30.05F WCI   3
PHILLIPS       CLOUDY    10  -4  52 W6        30.11S WCI   1
TOMAHAWK       CLOUDY    10  -4  52 W7        30.11F WCI   0
MEDFORD        CLOUDY    11  -2  54 W8        30.12F WCI   0
MERRILL        CLOUDY    12  -3  51 W10G16    30.13F WCI  -1
$$

WIZ029-030-035-036-043>047-120400-
CENTRAL WISCONSIN

CITY           SKY/WX    TMP DP  RH WIND       PRES   REMARKS
WAUSAU         CLOUDY    14  -1  51 W9        30.14F WCI   2
MOSINEE        CLOUDY    12   0  57 W8        30.16F WCI   1
MARSHFIELD     CLOUDY    14  -3  47 W7        30.15F WCI   4
STEVENS POINT  CLOUDY    13  -4  46 W6        30.17F WCI   4
WAUPACA        CLOUDY    18  -2  41 SW10      30.19F WCI   6
WAUTOMA        CLOUDY    14  -2  49 SW6       30.21F WCI   5
WISC RAPIDS    CLOUDY    15  -3  44 W8        30.20F WCI   4
CAMP DOUGLAS   CLOUDY    16   1  53 W10       30.21F WCI   3
$$

WIZ011>013-019>022-031-037>040-048>050-120400-
NORTHEAST WISCONSIN

CITY           SKY/WX    TMP DP  RH WIND       PRES   REMARKS
ANTIGO         CLOUDY    10  -3  55 W13       30.09F WCI  -5
SHAWANO        CLOUDY    17  -1  45 SW6       30.16F WCI   8
OCONTO         CLOUDY    15  -4  43 W10G16    30.17S WCI   2
STURGEON BAY   CLOUDY    14  -6  41 W16       30.16S WCI  -2
GREEN BAY      CLOUDY    13   0  56 SW5       30.18F WCI   5
MANITOWOC      CLOUDY    13   2  61 SW6       30.20F WCI   4
APPLETON       CLOUDY    16  -2  45 SW8       30.16F WCI   5
CLINTONVILLE   CLOUDY    14   0  52 SW7       30.17F WCI   4
OSHKOSH        CLOUDY    14   0  53 VRB3      30.20F
$$

WIZ032>034-041-042-053>061-120400-
SOUTHWEST WISCONSIN

CITY           SKY/WX    TMP DP  RH WIND       PRES   REMARKS
LA CROSSE      CLOUDY    15   2  56 SW7       30.26F WCI   5
SPARTA         CLOUDY    15   2  57 W8        30.25S WCI   4
VIROQUA        CLOUDY    12   2  64 W7        30.20F WCI   2
BOSCOBEL       CLOUDY    14   2  58 CALM      30.28S
PRAIRIE DU CHI CLOUDY    14   3  62 CALM      30.28S
PLATTEVILLE    CLEAR     12   1  60 W5        30.24F WCI   4
$$

WIZ056-057-062-063-064-067-068-120400-
SOUTH CENTRAL WISCONSIN

CITY           SKY/WX    TMP DP  RH WIND       PRES   REMARKS
REEDSBURG      CLOUDY    15   1  53 SW9       30.22F WCI   3
BARABOO/DELLS  CLOUDY    15   2  58 SW6       30.21F WCI   6
LONE ROCK      CLOUDY    15   3  59 CALM      30.26F
MINERAL POINT  CLOUDY    14   1  57 W6        30.22F WCI   5
MADISON        CLOUDY    15  -1  49 W5        30.23F WCI   8
MIDDLETON      CLOUDY    17   3  53 W12       30.23F WCI   4
WATERTOWN      CLOUDY    15   2  56 SW5       30.23S WCI   8
MONROE         CLOUDY    14   3  62 W7        30.22F WCI   4
JANESVILLE     CLOUDY    18   3  53 W5        30.25F WCI  11
$$

WIZ051-052-058>065-066-070>072-120400-
SOUTHEAST WISCONSIN

CITY           SKY/WX    TMP DP  RH WIND       PRES   REMARKS
MILWAUKEE      PTCLDY    15   0  51 SW6       30.24F WCI   6
WAUKESHA       CLOUDY    14   0  52 SW6       30.23F WCI   5
MILWAUKEE/TIMM CLOUDY    16   0  48 SW6       30.23F WCI   7
RACINE         MOCLDY    14   1  56 SW5       30.26F WCI   6
BURLINGTON     CLOUDY    13   5  69 CALM      30.24F
KENOSHA        MOCLDY    11   2  67 SW6       30.25F WCI   1
FOND DU LAC    CLOUDY    13   0  56 SW7       30.21F WCI   3
SHEBOYGAN      CLOUDY    14   1  56 SW9       30.20F WCI   2
WEST BEND      CLOUDY    16   0  48 CALM      30.21F
JUNEAU         CLOUDY    13   0  57 SW8       30.22F WCI   2
$$

LSZ147-162-120400-
LAKE SUPERIOR

STATION/POSITION TIME  TEMP    WIND        PRES    WAVE
                       AIR SEA DIR/SP/G            HT/PER
                 (UTC) (F)     (DEG/KT/KT) (MB)    (FT/S)
DEVILS ISLAND    0300   16     290/ 22/ 28 1021.9R
PORT WING        0240   15     260/ 13/ 17 1021.7F
SAXON HARBOR     0200   14                 1021.0F
$$

LMZ867-665-643>646-120400-
LAKE MICHIGAN

STATION/POSITION TIME  TEMP    WIND        PRES    WAVE
                       AIR SEA DIR/SP/G            HT/PER
                 (UTC) (F)     (DEG/KT/KT) (MB)    (FT/S)
CHAMBERS ISLAND  0240   17     200/  8/ 17 1020.3F
ALGOMA LAKESHORE 0211          280/  6/ 10   N/A
KEWAUNEE LAKESHO 0200   13                   N/A
SHEBOYGAN LAKESH 0300   15     230/  8/  9 1024.7F
PORT WASHINGTON  0200   13     260/  2/  4 1025.4S
MILWAUKEE LAKESH 0210   18     270/  8/ 11   N/A
KENOSHA   LAKESH 0300   17     250/  6/  9 1024.4F
$$

TC  - TEMPERATURE IN CELSIUS
VSB - VISIBILITY IN STATUTE MILES
WCI - WIND CHILL INDEX
HX  - HEAT INDEX





USA.gov is the U.S. government's official web portal to all federal, state and local government web resources and services.